Currently 57°F in Riverside (Presidential Park), California, USA
57°F
59°F / 57°F
3 mph W
0.00"
Monday, May 4, 2026 4:34 AM PDT

Riverside (Presidential Park), California Weather Summary
Last 36 Hours

Temperature Winds Hourly Humidity Dewpoint
Time Report Norm Report Norm Max Gusts Precip. Rpt. Norm Rpt. Norm Pressure
1Mon 04:34 AM  57.1°F  57°F  3 mph W  1 mph  5 mph  0.00"  73%  75%  48°F  49°F  N/A
3Mon 04:32 AM  57.0°F  57°F  4 mph W  1 mph  5 mph  ----  73%  75%  48°F  49°F  N/A
Mon 04:00 AM  57.4°F  57°F  3 mph SW  1 mph  7 mph  0.00"  71%  74%  48°F  49°F  N/A
Mon 03:00 AM  57.6°F  58°F  2 mph W  2 mph  9 mph  0.00"  70%  73%  47°F  49°F  N/A
Mon 02:00 AM  58.1°F  59°F  6 mph W  2 mph  10 mph  0.00"  75%  71%  50°F  49°F  N/A
Mon 01:00 AM  58.8°F  60°F  3 mph W  2 mph  11 mph  0.00"  75%  69%  50°F  49°F  N/A
2Mon 12:09 AM  59.1°F  61°F  5 mph W  2 mph  11 mph  ----  74%  67%  51°F  50°F  N/A
Mon 12:00 AM  58.9°F  61°F  5 mph W  2 mph  11 mph  0.00"  74%  67%  50°F  50°F  N/A
Sun 11:00 PM  59.4°F  62°F  3 mph SW  2 mph  13 mph  0.00"  70%  64%  49°F  50°F  N/A
Sun 10:00 PM  59.7°F  64°F  7 mph SW  3 mph  13 mph  0.00"  68%  61%  49°F  50°F  N/A
Sun 09:00 PM  60.2°F  66°F  5 mph W  3 mph  15 mph  0.00"  65%  56%  48°F  49°F  N/A
Sun 08:00 PM  61.3°F  68°F  11 mph SW  4 mph  17 mph  0.00"  65%  52%  49°F  49°F  N/A
Sun 07:00 PM  63.4°F  71°F  8 mph W  7 mph  16 mph  0.00"  58%  47%  48°F  49°F  N/A
Sun 06:00 PM  65.3°F  74°F  7 mph W  8 mph  18 mph  0.00"  55%  43%  48°F  49°F  N/A
Sun 05:00 PM  66.3°F  75°F  9 mph SW  8 mph  16 mph  0.00"  58%  40%  51°F  49°F  N/A
Sun 04:00 PM  66.9°F  76°F  9 mph W  8 mph  17 mph  0.00"  59%  39%  52°F  49°F  N/A
Sun 03:00 PM  67.5°F  77°F  3 mph W  7 mph  12 mph  0.00"  60%  39%  53°F  49°F  N/A
Sun 02:00 PM  66.0°F  76°F  calm  6 mph  9 mph  0.00"  68%  40%  55°F  49°F  N/A
Sun 01:00 PM  62.0°F  75°F  6 mph W  5 mph  10 mph  0.00"  79%  42%  55°F  49°F  N/A
Sun 12:00 PM  59.2°F  72°F  6 mph W  4 mph  11 mph  0.00"  91%  46%  56°F  50°F  N/A
Sun 11:00 AM  59.1°F  70°F  3 mph SW  3 mph  9 mph  0.00"  93%  52%  57°F  50°F  N/A
Sun 10:00 AM  59.2°F  66°F  5 mph W  3 mph  8 mph  0.00"  93%  59%  57°F  51°F  N/A
Sun 09:00 AM  58.6°F  63°F  3 mph NW  2 mph  6 mph  0.00"  92%  67%  56°F  51°F  N/A
Sun 08:00 AM  58.9°F  59°F  4 mph W  2 mph  4 mph  0.00"  91%  74%  56°F  51°F  N/A
Sun 07:00 AM  58.7°F  57°F  2 mph W  1 mph  5 mph  0.00"  90%  77%  56°F  49°F  N/A
Sun 06:00 AM  58.7°F  56°F  3 mph W  1 mph  5 mph  0.00"  89%  76%  55°F  49°F  N/A
Sun 05:00 AM  58.9°F  57°F  1 mph NW  1 mph  6 mph  0.00"  86%  75%  55°F  49°F  N/A
Sun 04:00 AM  58.8°F  57°F  1 mph NW  1 mph  7 mph  0.00"  86%  74%  55°F  49°F  N/A
Sun 03:00 AM  59.0°F  58°F  3 mph W  2 mph  8 mph  0.00"  86%  73%  55°F  49°F  N/A
Sun 02:00 AM  59.3°F  59°F  2 mph W  2 mph  7 mph  0.00"  82%  71%  54°F  49°F  N/A
Sun 01:00 AM  61.5°F  60°F  4 mph W  2 mph  5 mph  0.00"  77%  69%  54°F  49°F  N/A
Sun 12:00 AM  61.9°F  61°F  3 mph NW  2 mph  5 mph  0.00"  75%  67%  53°F  49°F  N/A
Sat 11:00 PM  62.9°F  62°F  2 mph NW  2 mph  9 mph  0.00"  73%  64%  54°F  49°F  N/A
Sat 10:00 PM  64.0°F  64°F  5 mph SW  3 mph  10 mph  0.00"  71%  60%  54°F  49°F  N/A
Sat 09:00 PM  67.0°F  66°F  6 mph W  3 mph  12 mph  0.00"  63%  56%  54°F  49°F  N/A
Sat 08:00 PM  71.7°F  68°F  4 mph W  4 mph  10 mph  0.00"  54%  52%  54°F  49°F  N/A
Sat 07:00 PM  74.7°F  71°F  6 mph W  7 mph  7 mph  0.00"  48%  47%  53°F  49°F  N/A
Sat 06:00 PM  78.0°F  74°F  6 mph W  8 mph  none  0.00"  45%  42%  54°F  48°F  N/A
Sat 05:00 PM  79.0°F  75°F  calm  8 mph  none  0.00"  44%  40%  55°F  48°F  N/A

  1. Current weather data. No green row appears if the current weather data is also the high or low for the current day.
  2. High temperature for the current day.
  3. Low temperature for the current day.

The Riverside (Presidential Park), California weather pages are a service of WeatherCurrents.
Copyright ©Mon May 04 04:34:43 PDT 2026  WeatherCurrents. All rights reserved. - Submit questions and comments - Privacy Policy

This page automatically refreshes every 10 minutes.